Theta_e
317 316 314 313 313 314 312 311 312 311 310 310 310 311 311 311 312 311 311 311 310 309 309 308 308 309 312 311 311 312 311 309 307 306 307 308 305 306 307 305 304 304
316 317 316 315 314 315 313 313 313 311 310 310 311 311 311 312 312 311 312 311 311 309 308 308 309 308 308 310 309 310 308 307 307 311 307 306 305 304 304 303 303 302
316 317 316 315 315 315 314 313 314 313 311 311 311 312 313 313 313 310 312 311 310 310 309 308 309 309 309 308 308 309 307 305 305 307 308 306 306 306 305 304 303 302
316 317 317 316 316 316 316 314 314 314 313 312 311 313 314 314 313 313 313 317 310 310 309 309 309 309 309 308 308 307 306 306 306 307 307 307 308 306 306 305 305 304
316 317 317 317 317 317 316 315 315 314 314 313 313 313 315 312 312 314 314 312 311 311 310 310 309 308 308 308 308 307 307 307 307 305 305 305 307 306 307 306 304 305
317 317 317 318 318 316 315 316 316 314 315 313 313 315 314 313 312 314 314 313 312 312 311 311 311 309 309 307 306 307 308 308 307 306 306 306 307 306 309 305 303 303
319 318 318 318 317 318 315 315 316 315 315 315 315 315 315 313 313 315 314 314 313 313 312 311 311 310 310 308 307 307 306 307 306 307 307 306 307 306 307 305 304 303
319 319 318 318 317 317 316 315 315 316 315 313 315 315 315 314 313 315 315 315 314 313 312 312 311 310 310 310 308 308 307 309 308 307 307 306 305 304 305 307 303 303
316 317 318 317 316 316 317 317 317 316 315 314 314 314 315 314 313 314 316 315 314 314 312 312 312 311 311 310 309 308 308 307 309 307 306 306 306 305 306 306 304 304
314 314 315 314 314 314 315 318 318 317 317 316 316 315 315 313 314 314 315 315 315 313 312 312 312 311 310 310 310 309 308 308 308 307 306 306 307 307 306 305 305 302
312 313 313 313 314 314 315 317 317 318 317 317 317 316 316 315 315 314 314 314 315 315 314 313 313 313 312 312 311 310 309 309 309 309 307 307 307 308 309 306 306 304
312 311 313 313 313 314 315 315 316 316 317 316 316 316 316 316 315 314 315 314 314 314 315 315 315 315 315 314 313 311 310 310 310 310 309 308 307 308 309 306 306 305
313 313 312 311 312 311 311 312 313 312 313 315 315 315 314 314 311 313 312 313 314 315 315 316 316 316 315 315 315 315 314 312 310 310 310 309 307 308 308 307 306 306
312 312 314 314 313 312 312 313 312 311 313 313 312 312 313 313 313 313 313 313 314 314 314 315 315 315 314 314 314 313 314 314 313 311 310 310 309 309 308 307 307 306
310 311 311 312 312 312 312 311 312 312 311 311 310 310 311 312 312 312 312 312 312 312 314 314 314 314 315 314 314 314 314 313 313 312 311 310 309 309 309 309 308 307
309 309 310 310 309 311 312 310 309 309 308 308 309 308 308 308 309 310 311 311 311 310 311 312 313 315 313 308 309 314 314 314 314 312 311 310 309 309 309 308 308 307
303 304 304 308 309 306 306 308 309 307 308 308 307 307 307 307 308 307 307 309 310 309 310 311 313 315 307 302 302 304 313 313 313 312 311 310 309 308 307 307 307 307
300 299 299 301 302 301 302 304 305 306 307 307 307 307 307 306 307 308 308 306 307 307 308 310 311 309 303 301 300 300 304 313 312 311 310 309 309 308 308 307 306 306
298 298 298 298 300 301 301 300 300 302 303 304 305 306 307 307 306 306 308 307 306 306 308 310 310 305 301 300 300 299 298 304 310 311 311 309 308 308 307 306 305 305
298 298 298 300 300 299 299 298 298 298 299 300 302 303 305 304 303 304 305 306 306 308 309 310 309 306 301 300 299 297 296 298 308 308 309 309 309 308 306 305 304 303
298 298 298 299 299 298 298 298 298 297 298 298 299 298 298 299 299 299 298 300 301 302 306 307 310 303 299 298 297 297 296 296 306 307 306 306 306 305 304 303 303 303
297 296 297 298 299 299 300 301 299 298 299 297 299 297 296 297 298 296 297 297 297 297 299 300 296 291 292 296 299 296 294 301 301 300 299 299 299 300 301 301 301 300
297 296 297 297 298 298 297 297 297 297 296 297 299 296 296 296 296 295 294 294 294 294 294 292 289 291 291 295 294 293 298 300 299 299 298 297 297 299 299 300 299 299
297 296 297 297 296 297 297 296 295 295 295 296 300 299 298 296 294 292 293 293 291 292 292 289 288 291 293 292 293 295 298 299 297 297 297 298 298 298 299 298 300 305
297 297 296 296 296 295 295 295 295 296 296 296 297 296 295 293 293 292 291 291 290 290 296 289 288 291 292 293 293 295 297 297 298 297 296 293 292 291 292 293 293 295
296 297 296 296 296 295 295 296 296 295 295 296 296 294 293 292 292 291 290 288 288 288 289 288 288 289 291 291 293 294 295 295 295 294 292 290 290 290 290 290 291 291
Wind_Speed
7 6 7 7 7 6 7 6 5 6 5 5 6 6 6 6 4 4 4 4 4 4 4 4 4 4 4 4 4 4 4 4 3 3 4 4 4 4 5 4 4 4
8 7 5 6 5 4 5 6 7 6 6 6 6 6 4 4 4 4 5 5 4 4 4 4 3 4 4 4 4 5 4 4 3 1 3 4 2 4 4 4 4 3
7 7 7 7 7 6 6 6 7 6 6 6 5 5 6 4 5 4 5 5 5 4 4 4 3 3 4 4 4 4 4 3 4 2 3 2 2 4 3 3 3 3
7 9 9 7 7 8 7 6 6 7 5 5 6 6 6 5 5 6 5 6 6 4 4 4 4 3 4 4 3 3 3 3 2 3 2 1 1 1 2 3 3 3
8 7 7 7 6 7 7 7 7 7 7 8 6 5 5 5 5 5 6 5 6 6 5 5 4 3 3 4 4 4 2 2 2 3 4 2 0 1 1 2 3 2
5 8 6 6 5 6 7 7 7 7 8 6 9 7 7 7 7 6 6 7 6 8 7 6 6 5 4 4 3 4 4 3 3 3 3 2 1 0 0 2 2 2
6 6 8 7 6 6 7 7 6 7 7 9 6 8 7 8 7 8 8 8 7 6 7 6 6 6 5 6 5 4 4 4 4 4 4 2 2 1 0 2 3 2
2 2 5 6 6 5 4 3 3 4 5 4 7 8 7 8 8 7 7 6 6 7 6 5 5 5 5 5 6 6 5 4 5 5 5 4 3 4 2 2 2 3
6 6 6 7 6 5 5 3 2 2 1 4 6 6 5 6 6 6 6 5 4 4 5 5 6 6 6 6 6 5 5 4 5 5 5 4 4 5 4 3 3 2
5 4 4 5 6 5 3 2 2 1 1 2 3 4 6 4 4 5 5 6 6 4 5 5 4 4 4 4 6 6 5 5 5 5 5 5 6 6 5 4 5 4
3 3 4 2 4 3 2 3 2 2 0 1 3 5 6 7 5 5 5 5 6 6 5 5 5 5 5 5 5 5 5 5 5 6 7 7 7 7 7 7 6 6
4 1 2 5 4 6 6 5 6 5 5 1 4 4 6 7 8 6 7 6 5 5 5 5 6 7 7 6 5 4 5 5 5 5 7 7 6 5 6 6 7 6
3 3 4 2 1 2 3 2 2 1 2 2 4 5 4 4 4 5 3 4 4 5 5 6 6 6 6 6 6 6 5 4 5 5 5 4 4 6 5 6 7 6
3 2 1 2 2 1 1 1 1 1 4 5 3 3 4 5 6 6 5 5 4 5 4 5 5 4 5 6 6 5 5 5 6 6 5 4 5 6 5 6 7 7
2 2 3 1 0 1 3 4 5 6 6 6 4 3 2 2 2 3 4 4 4 5 6 5 6 6 5 6 6 5 5 6 6 7 7 7 6 6 6 6 6 6
4 2 2 0 1 4 5 4 3 2 0 1 0 0 1 2 2 2 2 3 3 3 3 4 5 5 6 10 8 6 6 6 6 6 6 7 7 7 6 6 8 7
3 4 3 4 4 4 3 3 4 3 2 2 2 2 2 2 3 3 3 2 3 3 4 4 5 5 10 11 12 12 7 6 6 6 5 6 7 7 7 7 6 7
2 3 2 1 2 3 3 3 2 2 2 2 2 2 2 2 3 3 3 2 2 3 4 5 6 8 12 12 13 13 10 7 5 4 4 5 6 6 6 7 7 7
1 3 3 2 3 3 1 2 3 2 2 1 0 1 0 1 3 2 3 2 2 3 5 6 6 9 11 13 13 12 12 8 4 5 5 5 4 6 5 5 6 6
1 1 1 1 1 2 3 3 3 1 2 2 0 0 0 1 1 2 2 2 3 4 5 6 6 11 11 11 12 12 10 8 6 5 5 6 7 6 6 7 6 7
2 2 1 0 0 2 3 2 1 2 4 2 1 1 2 2 2 2 2 2 2 3 4 5 7 8 11 11 8 5 10 9 5 4 5 5 5 4 4 5 5 5
3 3 1 1 1 1 1 0 1 1 2 3 1 2 2 2 2 2 1 0 1 1 2 4 3 7 8 8 7 8 9 6 4 3 3 3 3 4 4 4 5 6
2 2 3 2 1 1 1 1 2 3 3 1 1 1 2 4 2 3 2 3 3 2 1 0 2 7 8 3 5 7 7 5 5 5 5 5 4 4 5 5 4 5
1 2 3 1 2 2 2 2 2 2 3 2 1 1 2 1 2 3 4 4 3 3 1 1 2 6 7 2 2 5 6 6 6 7 6 6 6 5 6 6 8 11
1 2 2 1 2 2 1 3 4 4 4 1 3 2 2 3 3 5 3 4 3 3 5 4 3 5 6 5 5 5 5 4 6 7 7 5 6 6 6 6 6 9
3 4 3 3 3 4 3 3 2 3 3 3 2 2 4 3 4 4 4 3 3 3 4 4 4 4 4 8 8 9 8 6 4 7 7 6 5 6 7 6 6 6
Wind_Direction
149 155 159 163 166 160 158 162 185 177 184 175 167 178 170 181 171 153 142 132 132 120 106 95 95 87 104 108 109 104 105 112 106 92 81 77 66 80 78 89 80 101
161 158 159 152 154 166 166 167 177 181 188 189 186 174 182 162 186 150 146 143 138 137 131 114 93 96 104 114 116 111 107 110 106 105 91 78 65 75 70 74 94 85
163 156 157 164 165 183 184 178 177 190 187 198 187 177 176 176 174 154 150 149 147 149 148 138 113 105 110 120 120 116 118 106 106 92 103 110 78 85 59 81 81 91
170 166 165 171 169 181 190 179 187 190 190 172 197 194 180 182 172 162 160 159 150 154 154 148 153 129 123 133 124 120 140 150 146 130 106 56 41 97 75 85 88 60
167 173 163 165 181 190 185 187 188 190 187 192 185 190 181 174 176 171 168 168 160 162 162 166 164 144 136 134 150 137 134 145 131 128 130 127 27 108 141 101 79 82
165 160 155 157 188 197 191 197 195 186 194 182 188 182 185 179 178 178 178 177 179 171 175 170 173 167 163 146 150 162 157 162 178 140 136 140 169 310 148 98 100 90
163 149 146 166 195 226 190 204 203 192 189 191 172 187 182 182 182 184 185 185 182 182 177 180 175 173 176 155 159 165 171 175 178 163 164 177 163 207 95 122 114 119
86 110 172 161 164 232 226 207 224 211 192 159 186 191 184 183 188 189 191 188 182 184 183 178 185 180 183 170 173 172 180 175 180 176 177 184 163 201 197 194 146 158
82 84 97 91 96 95 82 80 84 60 332 202 185 187 191 190 188 186 187 185 193 186 180 181 190 193 188 183 183 186 182 186 183 181 181 187 182 203 206 189 160 169
106 112 90 106 126 149 112 123 120 121 199 120 142 144 162 166 164 174 179 179 177 167 171 180 186 206 211 206 192 187 188 186 189 192 193 190 192 196 198 185 182 169
71 71 66 108 137 93 149 170 159 158 21 139 129 146 155 157 171 164 164 174 182 174 166 170 180 182 197 212 209 196 194 195 192 196 199 199 197 195 190 187 184 181
330 50 246 242 187 171 195 184 175 156 136 200 275 220 158 155 162 178 177 186 189 177 173 169 179 188 194 204 207 198 199 204 209 210 209 205 200 199 193 189 189 190
192 211 192 204 254 207 176 163 171 84 56 189 232 235 170 150 166 168 196 181 187 184 185 188 196 195 191 194 202 207 206 204 218 229 230 222 210 203 200 193 194 192
220 207 229 227 193 157 241 246 135 192 193 204 214 190 141 155 169 176 191 188 193 196 199 195 204 212 209 207 212 211 201 211 214 222 221 226 227 218 201 193 195 195
245 264 253 245 360 308 256 226 222 205 197 191 192 190 182 179 175 174 160 184 197 192 195 194 200 212 212 210 215 220 208 218 216 214 211 215 221 221 209 195 192 192
228 256 289 333 213 218 229 241 255 268 273 317 352 330 259 258 252 254 218 199 203 218 202 199 206 214 221 222 220 220 221 220 218 219 212 208 211 213 208 202 193 184
202 221 192 205 219 232 248 256 253 239 226 229 231 229 222 221 211 228 235 224 220 221 223 219 220 220 222 221 223 221 219 224 220 225 213 207 205 203 200 197 195 187
88 131 137 209 231 232 222 228 231 215 227 233 218 226 217 196 216 236 243 227 209 225 239 237 229 222 215 220 222 222 220 220 217 216 206 202 200 198 202 189 180 180
145 79 53 70 137 153 134 68 61 49 34 45 9 270 127 174 228 233 248 234 214 234 250 258 260 245 220 219 220 218 220 222 223 224 218 211 182 187 192 195 185 171
38 55 74 133 153 102 86 82 85 112 176 187 268 360 19 277 287 253 257 230 222 228 243 253 256 267 256 236 226 213 201 199 225 217 206 195 198 195 194 194 183 164
21 11 352 328 344 81 82 85 73 16 7 3 76 151 167 189 235 281 312 309 263 228 233 248 258 299 304 286 280 222 197 195 217 214 203 204 207 189 176 156 145 134
38 37 9 356 329 69 85 54 341 329 303 318 360 352 2 38 55 115 117 314 295 276 230 268 296 343 336 314 244 204 180 175 168 155 138 118 113 130 131 130 124 127
82 84 46 28 26 30 335 307 301 308 296 260 296 338 359 45 71 69 19 16 14 34 112 21 322 330 334 304 212 182 142 123 112 102 95 93 85 84 95 98 106 127
127 86 66 62 40 2 321 296 291 288 272 223 184 268 327 54 124 73 39 30 31 26 39 92 355 336 352 336 196 183 138 128 119 111 105 101 85 57 57 53 38 47
77 39 27 17 346 303 260 273 275 264 267 230 218 164 103 103 80 82 55 35 28 40 53 71 35 3 20 69 103 111 101 109 117 115 109 94 94 77 58 57 52 48
7 356 354 21 5 339 335 306 292 317 316 309 349 80 96 83 86 87 81 41 21 36 46 37 52 31 35 73 83 88 96 101 97 111 108 99 87 94 84 65 63 67